Date_Time,Julian_Date,Latitude,Longitude,Instrument_Depth,U,V,Speed,Direction
(yyyy-mm-dd hh:mn:ss UTC),(JD),(+ deg. North),(+ deg. East),(m),(cm/s),(cm/s),(cm/s),(deg True)
1984-04-09 17:30:00 UTC,2445800.229167,29.6650,-93.4789,0086,-9.40,-3.42,10.0000,250.0000
1984-04-09 18:00:00 UTC,2445800.250000,29.6650,-93.4789,0086,-9.14,-4.07,10.0000,246.0000
1984-04-09 18:30:00 UTC,2445800.270833,29.6650,-93.4789,0086,-9.34,-3.58,10.0000,249.0000
1984-04-09 19:00:00 UTC,2445800.291667,29.6650,-93.4789,0086,-9.21,-3.91,10.0000,247.0000
1984-04-09 19:30:00 UTC,2445800.312500,29.6650,-93.4789,0086,-8.57,-5.15,10.0000,239.0000
1984-04-09 20:00:00 UTC,2445800.333333,29.6650,-93.4789,0086,-9.95,-6.71,12.0000,236.0000
1984-04-09 20:30:00 UTC,2445800.354167,29.6650,-93.4789,0086,-11.48,-6.10,13.0000,242.0000
1984-04-09 21:00:00 UTC,2445800.375000,29.6650,-93.4789,0086,-12.47,-6.36,14.0000,243.0000
1984-04-09 21:30:00 UTC,2445800.395833,29.6650,-93.4789,0086,-12.86,-7.73,15.0000,239.0000
1984-04-09 22:00:00 UTC,2445800.416667,29.6650,-93.4789,0086,-12.58,-6.14,14.0000,244.0000
1984-04-09 22:30:00 UTC,2445800.437500,29.6650,-93.4789,0086,-13.52,-3.62,14.0000,255.0000
1984-04-09 23:00:00 UTC,2445800.458333,29.6650,-93.4789,0086,-13.86,-1.95,14.0000,262.0000
1984-04-09 23:30:00 UTC,2445800.479167,29.6650,-93.4789,0086,-13.97,-0.98,14.0000,266.0000
1984-04-10 00:00:00 UTC,2445800.500000,29.6650,-93.4789,0086,-13.97,-0.98,14.0000,266.0000
1984-04-10 00:30:00 UTC,2445800.520833,29.6650,-93.4789,0086,-13.95,-1.22,14.0000,265.0000
1984-04-10 01:00:00 UTC,2445800.541667,29.6650,-93.4789,0086,-13.90,-1.71,14.0000,263.0000
1984-04-10 01:30:00 UTC,2445800.562500,29.6650,-93.4789,0086,-12.87,-1.81,13.0000,262.0000
1984-04-10 02:00:00 UTC,2445800.583333,29.6650,-93.4789,0086,-11.88,-1.67,12.0000,262.0000
1984-04-10 02:30:00 UTC,2445800.604167,29.6650,-93.4789,0086,-10.83,-1.91,11.0000,260.0000
1984-04-10 03:00:00 UTC,2445800.625000,29.6650,-93.4789,0086,-10.83,-1.91,11.0000,260.0000
1984-04-10 03:30:00 UTC,2445800.645833,29.6650,-93.4789,0086,-10.86,-1.72,11.0000,261.0000
1984-04-10 04:00:00 UTC,2445800.666667,29.6650,-93.4789,0086,-9.74,-2.25,10.0000,257.0000
1984-04-10 04:30:00 UTC,2445800.687500,29.6650,-93.4789,0086,-8.40,-3.23,9.0000,249.0000
1984-04-10 05:00:00 UTC,2445800.708333,29.6650,-93.4789,0086,-9.14,-4.07,10.0000,246.0000
1984-04-10 05:30:00 UTC,2445800.729167,29.6650,-93.4789,0086,-9.34,-3.58,10.0000,249.0000
1984-04-10 06:00:00 UTC,2445800.750000,29.6650,-93.4789,0086,-9.51,-3.09,10.0000,252.0000
1984-04-10 06:30:00 UTC,2445800.770833,29.6650,-93.4789,0086,-8.69,-2.33,9.0000,255.0000
1984-04-10 07:00:00 UTC,2445800.791667,29.6650,-93.4789,0086,-7.65,-2.34,8.0000,253.0000
1984-04-10 07:30:00 UTC,2445800.812500,29.6650,-93.4789,0086,-6.18,-3.29,7.0000,242.0000
1984-04-10 08:00:00 UTC,2445800.833333,29.6650,-93.4789,0086,-4.15,-2.80,5.0000,236.0000
1984-04-10 08:30:00 UTC,2445800.854167,29.6650,-93.4789,0086,-3.63,-1.69,4.0000,245.0000
1984-04-10 09:00:00 UTC,2445800.875000,29.6650,-93.4789,0086,-3.00,0.10,3.0000,272.0000
1984-04-10 09:30:00 UTC,2445800.895833,29.6650,-93.4789,0086,-3.88,0.97,4.0000,284.0000
1984-04-10 10:00:00 UTC,2445800.916667,29.6650,-93.4789,0086,-4.85,1.21,5.0000,284.0000
1984-04-10 10:30:00 UTC,2445800.937500,29.6650,-93.4789,0086,-4.87,1.12,5.0000,283.0000
1984-04-10 11:00:00 UTC,2445800.958333,29.6650,-93.4789,0086,-4.99,0.35,5.0000,274.0000
1984-04-10 11:30:00 UTC,2445800.979167,29.6650,-93.4789,0086,-3.99,-0.21,4.0000,267.0000
1984-04-10 12:00:00 UTC,2445801.000000,29.6650,-93.4789,0086,-5.00,0.09,5.0000,271.0000
1984-04-10 12:30:00 UTC,2445801.020833,29.6650,-93.4789,0086,-4.99,0.26,5.0000,273.0000
1984-04-10 13:00:00 UTC,2445801.041667,29.6650,-93.4789,0086,-4.99,0.26,5.0000,273.0000
1984-04-10 13:30:00 UTC,2445801.062500,29.6650,-93.4789,0086,-6.00,-0.21,6.0000,268.0000
1984-04-10 14:00:00 UTC,2445801.083333,29.6650,-93.4789,0086,-5.77,-1.65,6.0000,254.0000
1984-04-10 14:30:00 UTC,2445801.104167,29.6650,-93.4789,0086,-6.49,-2.62,7.0000,248.0000
1984-04-10 15:00:00 UTC,2445801.125000,29.6650,-93.4789,0086,-8.40,-3.23,9.0000,249.0000
1984-04-10 15:30:00 UTC,2445801.145833,29.6650,-93.4789,0086,-7.42,-3.00,8.0000,248.0000
1984-04-10 16:00:00 UTC,2445801.166667,29.6650,-93.4789,0086,-6.18,-3.29,7.0000,242.0000
1984-04-10 16:30:00 UTC,2445801.187500,29.6650,-93.4789,0086,-4.91,-3.44,6.0000,235.0000
1984-04-10 17:00:00 UTC,2445801.208333,29.6650,-93.4789,0086,-4.66,-3.78,6.0000,231.0000
1984-04-10 17:30:00 UTC,2445801.229167,29.6650,-93.4789,0086,-4.39,-4.09,6.0000,227.0000
1984-04-10 18:00:00 UTC,2445801.250000,29.6650,-93.4789,0086,-3.94,-4.53,6.0000,221.0000
1984-04-10 18:30:00 UTC,2445801.270833,29.6650,-93.4789,0086,-5.12,-4.77,7.0000,227.0000
1984-04-10 19:00:00 UTC,2445801.291667,29.6650,-93.4789,0086,-7.06,-3.76,8.0000,242.0000
1984-04-10 19:30:00 UTC,2445801.312500,29.6650,-93.4789,0086,-8.46,-3.08,9.0000,250.0000
1984-04-10 20:00:00 UTC,2445801.333333,29.6650,-93.4789,0086,-8.65,-2.48,9.0000,254.0000
1984-04-10 20:30:00 UTC,2445801.354167,29.6650,-93.4789,0086,-6.82,-1.57,7.0000,257.0000
1984-04-10 21:00:00 UTC,2445801.375000,29.6650,-93.4789,0086,-4.70,-1.71,5.0000,250.0000
1984-04-10 21:30:00 UTC,2445801.395833,29.6650,-93.4789,0086,-4.64,-1.87,5.0000,248.0000
1984-04-10 22:00:00 UTC,2445801.416667,29.6650,-93.4789,0086,-5.96,-0.73,6.0000,263.0000
1984-04-10 22:30:00 UTC,2445801.437500,29.6650,-93.4789,0086,-6.98,0.49,7.0000,274.0000
1984-04-10 23:00:00 UTC,2445801.458333,29.6650,-93.4789,0086,-6.99,0.37,7.0000,273.0000
1984-04-10 23:30:00 UTC,2445801.479167,29.6650,-93.4789,0086,-7.00,-0.24,7.0000,268.0000
1984-04-11 00:00:00 UTC,2445801.500000,29.6650,-93.4789,0086,-7.00,-0.24,7.0000,268.0000
1984-04-11 00:30:00 UTC,2445801.520833,29.6650,-93.4789,0086,-5.89,-1.14,6.0000,259.0000
1984-04-11 01:00:00 UTC,2445801.541667,29.6650,-93.4789,0086,-5.20,-3.00,6.0000,240.0000
1984-04-11 01:30:00 UTC,2445801.562500,29.6650,-93.4789,0086,-4.79,-3.61,6.0000,233.0000
1984-04-11 02:00:00 UTC,2445801.583333,29.6650,-93.4789,0086,-5.87,-3.81,7.0000,237.0000
1984-04-11 02:30:00 UTC,2445801.604167,29.6650,-93.4789,0086,-6.71,-4.36,8.0000,237.0000
1984-04-11 03:00:00 UTC,2445801.625000,29.6650,-93.4789,0086,-6.63,-4.47,8.0000,236.0000
1984-04-11 03:30:00 UTC,2445801.645833,29.6650,-93.4789,0086,-5.80,-3.91,7.0000,236.0000
1984-04-11 04:00:00 UTC,2445801.666667,29.6650,-93.4789,0086,-5.20,-4.68,7.0000,228.0000
1984-04-11 04:30:00 UTC,2445801.687500,29.6650,-93.4789,0086,-4.68,-5.20,7.0000,222.0000
1984-04-11 05:00:00 UTC,2445801.708333,29.6650,-93.4789,0086,-5.85,-5.46,8.0000,227.0000
1984-04-11 05:30:00 UTC,2445801.729167,29.6650,-93.4789,0086,-6.89,-5.79,9.0000,230.0000
1984-04-11 06:00:00 UTC,2445801.750000,29.6650,-93.4789,0086,-7.28,-5.29,9.0000,234.0000
1984-04-11 06:30:00 UTC,2445801.770833,29.6650,-93.4789,0086,-7.55,-4.90,9.0000,237.0000
1984-04-11 07:00:00 UTC,2445801.791667,29.6650,-93.4789,0086,-7.63,-4.77,9.0000,238.0000
1984-04-11 07:30:00 UTC,2445801.812500,29.6650,-93.4789,0086,-7.36,-3.13,8.0000,247.0000
1984-04-11 08:00:00 UTC,2445801.833333,29.6650,-93.4789,0086,-6.79,-1.69,7.0000,256.0000
1984-04-11 08:30:00 UTC,2445801.854167,29.6650,-93.4789,0086,-5.94,-0.84,6.0000,262.0000
1984-04-11 09:00:00 UTC,2445801.875000,29.6650,-93.4789,0086,-6.00,-0.21,6.0000,268.0000
1984-04-11 09:30:00 UTC,2445801.895833,29.6650,-93.4789,0086,-6.99,0.37,7.0000,273.0000
1984-04-11 10:00:00 UTC,2445801.916667,29.6650,-93.4789,0086,-6.99,0.37,7.0000,273.0000
1984-04-11 10:30:00 UTC,2445801.937500,29.6650,-93.4789,0086,-8.00,0.14,8.0000,271.0000
1984-04-11 11:00:00 UTC,2445801.958333,29.6650,-93.4789,0086,-8.99,0.47,9.0000,273.0000
1984-04-11 11:30:00 UTC,2445801.979167,29.6650,-93.4789,0086,-9.99,0.52,10.0000,273.0000
1984-04-11 12:00:00 UTC,2445802.000000,29.6650,-93.4789,0086,-10.99,-0.38,11.0000,268.0000
1984-04-11 12:30:00 UTC,2445802.020833,29.6650,-93.4789,0086,-11.99,-0.42,12.0000,268.0000
1984-04-11 13:00:00 UTC,2445802.041667,29.6650,-93.4789,0086,-14.00,0.24,14.0000,271.0000
1984-04-11 13:30:00 UTC,2445802.062500,29.6650,-93.4789,0086,-16.00,0.28,16.0000,271.0000
1984-04-11 14:00:00 UTC,2445802.083333,29.6650,-93.4789,0086,-16.99,-0.59,17.0000,268.0000
1984-04-11 14:30:00 UTC,2445802.104167,29.6650,-93.4789,0086,-17.82,-2.51,18.0000,262.0000
1984-04-11 15:00:00 UTC,2445802.125000,29.6650,-93.4789,0086,-17.61,-3.74,18.0000,258.0000
1984-04-11 15:30:00 UTC,2445802.145833,29.6650,-93.4789,0086,-15.52,-3.87,16.0000,256.0000
1984-04-11 16:00:00 UTC,2445802.166667,29.6650,-93.4789,0086,-14.34,-4.39,15.0000,253.0000
1984-04-11 16:30:00 UTC,2445802.187500,29.6650,-93.4789,0086,-12.79,-5.69,14.0000,246.0000
1984-04-11 17:00:00 UTC,2445802.208333,29.6650,-93.4789,0086,-12.47,-6.36,14.0000,243.0000
1984-04-11 17:30:00 UTC,2445802.229167,29.6650,-93.4789,0086,-11.68,-5.70,13.0000,244.0000
1984-04-11 18:00:00 UTC,2445802.250000,29.6650,-93.4789,0086,-11.68,-5.70,13.0000,244.0000
1984-04-11 18:30:00 UTC,2445802.270833,29.6650,-93.4789,0086,-11.97,-5.08,13.0000,247.0000
1984-04-11 19:00:00 UTC,2445802.291667,29.6650,-93.4789,0086,-11.41,-3.71,12.0000,252.0000
1984-04-11 19:30:00 UTC,2445802.312500,29.6650,-93.4789,0086,-12.56,-3.36,13.0000,255.0000
1984-04-11 20:00:00 UTC,2445802.333333,29.6650,-93.4789,0086,-12.50,-3.58,13.0000,254.0000
1984-04-11 20:30:00 UTC,2445802.354167,29.6650,-93.4789,0086,-12.36,-4.02,13.0000,252.0000
1984-04-11 21:00:00 UTC,2445802.375000,29.6650,-93.4789,0086,-11.05,-4.69,12.0000,247.0000
1984-04-11 21:30:00 UTC,2445802.395833,29.6650,-93.4789,0086,-11.78,-5.49,13.0000,245.0000
1984-04-11 22:00:00 UTC,2445802.416667,29.6650,-93.4789,0086,-12.29,-4.23,13.0000,251.0000
1984-04-11 22:30:00 UTC,2445802.437500,29.6650,-93.4789,0086,-12.76,-2.48,13.0000,259.0000
1984-04-11 23:00:00 UTC,2445802.458333,29.6650,-93.4789,0086,-12.84,-2.03,13.0000,261.0000
1984-04-11 23:30:00 UTC,2445802.479167,29.6650,-93.4789,0086,-11.64,-2.90,12.0000,256.0000
1984-04-12 00:00:00 UTC,2445802.500000,29.6650,-93.4789,0086,-11.69,-2.70,12.0000,257.0000
1984-04-12 00:30:00 UTC,2445802.520833,29.6650,-93.4789,0086,-12.84,-2.03,13.0000,261.0000
1984-04-12 01:00:00 UTC,2445802.541667,29.6650,-93.4789,0086,-13.74,-2.67,14.0000,259.0000
1984-04-12 01:30:00 UTC,2445802.562500,29.6650,-93.4789,0086,-13.69,-2.91,14.0000,258.0000
1984-04-12 02:00:00 UTC,2445802.583333,29.6650,-93.4789,0086,-12.56,-3.36,13.0000,255.0000
1984-04-12 02:30:00 UTC,2445802.604167,29.6650,-93.4789,0086,-11.35,-3.91,12.0000,251.0000
1984-04-12 03:00:00 UTC,2445802.625000,29.6650,-93.4789,0086,-12.50,-3.58,13.0000,254.0000
1984-04-12 03:30:00 UTC,2445802.645833,29.6650,-93.4789,0086,-12.67,-2.92,13.0000,257.0000
1984-04-12 04:00:00 UTC,2445802.666667,29.6650,-93.4789,0086,-12.56,-3.36,13.0000,255.0000
1984-04-12 04:30:00 UTC,2445802.687500,29.6650,-93.4789,0086,-11.48,-3.51,12.0000,253.0000
1984-04-12 05:00:00 UTC,2445802.708333,29.6650,-93.4789,0086,-11.28,-4.10,12.0000,250.0000
1984-04-12 05:30:00 UTC,2445802.729167,29.6650,-93.4789,0086,-11.78,-5.49,13.0000,245.0000
1984-04-12 06:00:00 UTC,2445802.750000,29.6650,-93.4789,0086,-12.58,-6.14,14.0000,244.0000
1984-04-12 06:30:00 UTC,2445802.770833,29.6650,-93.4789,0086,-12.79,-5.69,14.0000,246.0000
1984-04-12 07:00:00 UTC,2445802.791667,29.6650,-93.4789,0086,-13.91,-5.62,15.0000,248.0000
1984-04-12 07:30:00 UTC,2445802.812500,29.6650,-93.4789,0086,-13.31,-4.33,14.0000,252.0000
1984-04-12 08:00:00 UTC,2445802.833333,29.6650,-93.4789,0086,-11.54,-3.31,12.0000,254.0000
1984-04-12 08:30:00 UTC,2445802.854167,29.6650,-93.4789,0086,-11.48,-3.51,12.0000,253.0000
1984-04-12 09:00:00 UTC,2445802.875000,29.6650,-93.4789,0086,-11.59,-3.11,12.0000,255.0000
1984-04-12 09:30:00 UTC,2445802.895833,29.6650,-93.4789,0086,-11.69,-2.70,12.0000,257.0000
1984-04-12 10:00:00 UTC,2445802.916667,29.6650,-93.4789,0086,-11.78,-2.29,12.0000,259.0000
1984-04-12 10:30:00 UTC,2445802.937500,29.6650,-93.4789,0086,-11.78,-2.29,12.0000,259.0000
1984-04-12 11:00:00 UTC,2445802.958333,29.6650,-93.4789,0086,-11.74,-2.49,12.0000,258.0000
1984-04-12 11:30:00 UTC,2445802.979167,29.6650,-93.4789,0086,-12.67,-2.92,13.0000,257.0000
1984-04-12 12:00:00 UTC,2445803.000000,29.6650,-93.4789,0086,-12.56,-3.36,13.0000,255.0000
1984-04-12 12:30:00 UTC,2445803.020833,29.6650,-93.4789,0086,-12.67,-2.92,13.0000,257.0000
1984-04-12 13:00:00 UTC,2445803.041667,29.6650,-93.4789,0086,-13.79,-2.43,14.0000,260.0000
1984-04-12 13:30:00 UTC,2445803.062500,29.6650,-93.4789,0086,-13.79,-2.43,14.0000,260.0000
1984-04-12 14:00:00 UTC,2445803.083333,29.6650,-93.4789,0086,-13.79,-2.43,14.0000,260.0000
1984-04-12 14:30:00 UTC,2445803.104167,29.6650,-93.4789,0086,-12.80,-2.26,13.0000,260.0000
1984-04-12 15:00:00 UTC,2445803.125000,29.6650,-93.4789,0086,-12.72,-2.70,13.0000,258.0000
1984-04-12 15:30:00 UTC,2445803.145833,29.6650,-93.4789,0086,-12.80,-2.26,13.0000,260.0000
1984-04-12 16:00:00 UTC,2445803.166667,29.6650,-93.4789,0086,-12.87,-1.81,13.0000,262.0000
1984-04-12 16:30:00 UTC,2445803.187500,29.6650,-93.4789,0086,-12.84,-2.03,13.0000,261.0000
1984-04-12 17:00:00 UTC,2445803.208333,29.6650,-93.4789,0086,-12.72,-2.70,13.0000,258.0000
1984-04-12 17:30:00 UTC,2445803.229167,29.6650,-93.4789,0086,-12.72,-2.70,13.0000,258.0000
1984-04-12 18:00:00 UTC,2445803.250000,29.6650,-93.4789,0086,-11.64,-2.90,12.0000,256.0000
1984-04-12 18:30:00 UTC,2445803.270833,29.6650,-93.4789,0086,-11.54,-3.31,12.0000,254.0000
1984-04-12 19:00:00 UTC,2445803.291667,29.6650,-93.4789,0086,-12.36,-4.02,13.0000,252.0000
1984-04-12 19:30:00 UTC,2445803.312500,29.6650,-93.4789,0086,-11.13,-4.50,12.0000,248.0000
1984-04-12 20:00:00 UTC,2445803.333333,29.6650,-93.4789,0086,-10.05,-4.47,11.0000,246.0000
1984-04-12 20:30:00 UTC,2445803.354167,29.6650,-93.4789,0086,-9.06,-4.23,10.0000,245.0000
1984-04-12 21:00:00 UTC,2445803.375000,29.6650,-93.4789,0086,-8.16,-3.80,9.0000,245.0000
1984-04-12 21:30:00 UTC,2445803.395833,29.6650,-93.4789,0086,-8.34,-3.37,9.0000,248.0000
1984-04-12 22:00:00 UTC,2445803.416667,29.6650,-93.4789,0086,-7.47,-2.87,8.0000,249.0000
1984-04-12 22:30:00 UTC,2445803.437500,29.6650,-93.4789,0086,-7.56,-2.60,8.0000,251.0000
1984-04-12 23:00:00 UTC,2445803.458333,29.6650,-93.4789,0086,-7.73,-2.07,8.0000,255.0000
1984-04-12 23:30:00 UTC,2445803.479167,29.6650,-93.4789,0086,-7.73,-2.07,8.0000,255.0000
1984-04-13 00:00:00 UTC,2445803.500000,29.6650,-93.4789,0086,-8.73,-2.18,9.0000,256.0000
1984-04-13 00:30:00 UTC,2445803.520833,29.6650,-93.4789,0086,-8.89,-1.41,9.0000,261.0000
1984-04-13 01:00:00 UTC,2445803.541667,29.6650,-93.4789,0086,-9.90,-1.39,10.0000,262.0000
1984-04-13 01:30:00 UTC,2445803.562500,29.6650,-93.4789,0086,-11.91,-1.46,12.0000,263.0000
1984-04-13 02:00:00 UTC,2445803.583333,29.6650,-93.4789,0086,-12.97,-0.91,13.0000,266.0000
1984-04-13 02:30:00 UTC,2445803.604167,29.6650,-93.4789,0086,-12.99,-0.45,13.0000,268.0000
1984-04-13 03:00:00 UTC,2445803.625000,29.6650,-93.4789,0086,-10.92,-1.34,11.0000,263.0000
1984-04-13 03:30:00 UTC,2445803.645833,29.6650,-93.4789,0086,-10.72,-2.47,11.0000,257.0000
1984-04-13 04:00:00 UTC,2445803.666667,29.6650,-93.4789,0086,-10.72,-2.47,11.0000,257.0000
1984-04-13 04:30:00 UTC,2445803.687500,29.6650,-93.4789,0086,-10.83,-1.91,11.0000,260.0000
1984-04-13 05:00:00 UTC,2445803.708333,29.6650,-93.4789,0086,-10.80,-2.10,11.0000,259.0000
1984-04-13 05:30:00 UTC,2445803.729167,29.6650,-93.4789,0086,-11.74,-2.49,12.0000,258.0000
1984-04-13 06:00:00 UTC,2445803.750000,29.6650,-93.4789,0086,-11.69,-2.70,12.0000,257.0000
1984-04-13 06:30:00 UTC,2445803.770833,29.6650,-93.4789,0086,-11.69,-2.70,12.0000,257.0000
1984-04-13 07:00:00 UTC,2445803.791667,29.6650,-93.4789,0086,-11.78,-2.29,12.0000,259.0000
1984-04-13 07:30:00 UTC,2445803.812500,29.6650,-93.4789,0086,-11.82,-2.08,12.0000,260.0000
1984-04-13 08:00:00 UTC,2445803.833333,29.6650,-93.4789,0086,-11.69,-2.70,12.0000,257.0000
1984-04-13 08:30:00 UTC,2445803.854167,29.6650,-93.4789,0086,-10.67,-2.66,11.0000,256.0000
1984-04-13 09:00:00 UTC,2445803.875000,29.6650,-93.4789,0086,-10.63,-2.85,11.0000,255.0000
1984-04-13 09:30:00 UTC,2445803.895833,29.6650,-93.4789,0086,-10.67,-2.66,11.0000,256.0000
1984-04-13 10:00:00 UTC,2445803.916667,29.6650,-93.4789,0086,-10.80,-2.10,11.0000,259.0000
1984-04-13 10:30:00 UTC,2445803.937500,29.6650,-93.4789,0086,-10.80,-2.10,11.0000,259.0000
1984-04-13 11:00:00 UTC,2445803.958333,29.6650,-93.4789,0086,-10.80,-2.10,11.0000,259.0000
1984-04-13 11:30:00 UTC,2445803.979167,29.6650,-93.4789,0086,-10.80,-2.10,11.0000,259.0000
1984-04-13 12:00:00 UTC,2445804.000000,29.6650,-93.4789,0086,-10.86,-1.72,11.0000,261.0000
1984-04-13 12:30:00 UTC,2445804.020833,29.6650,-93.4789,0086,-10.94,-1.15,11.0000,264.0000
1984-04-13 13:00:00 UTC,2445804.041667,29.6650,-93.4789,0086,-10.94,-1.15,11.0000,264.0000
1984-04-13 13:30:00 UTC,2445804.062500,29.6650,-93.4789,0086,-9.95,-1.05,10.0000,264.0000
1984-04-13 14:00:00 UTC,2445804.083333,29.6650,-93.4789,0086,-8.93,-1.10,9.0000,263.0000
1984-04-13 14:30:00 UTC,2445804.104167,29.6650,-93.4789,0086,-8.77,-2.02,9.0000,257.0000
1984-04-13 15:00:00 UTC,2445804.125000,29.6650,-93.4789,0086,-7.65,-2.34,8.0000,253.0000
1984-04-13 15:30:00 UTC,2445804.145833,29.6650,-93.4789,0086,-7.73,-2.07,8.0000,255.0000
1984-04-13 16:00:00 UTC,2445804.166667,29.6650,-93.4789,0086,-7.76,-1.94,8.0000,256.0000
1984-04-13 16:30:00 UTC,2445804.187500,29.6650,-93.4789,0086,-9.56,-2.92,10.0000,253.0000
1984-04-13 17:00:00 UTC,2445804.208333,29.6650,-93.4789,0086,-11.54,-3.31,12.0000,254.0000
1984-04-13 17:30:00 UTC,2445804.229167,29.6650,-93.4789,0086,-12.29,-4.23,13.0000,251.0000
1984-04-13 18:00:00 UTC,2445804.250000,29.6650,-93.4789,0086,-10.39,-6.00,12.0000,240.0000
1984-04-13 18:30:00 UTC,2445804.270833,29.6650,-93.4789,0086,-9.66,-8.70,13.0000,228.0000
1984-04-13 19:00:00 UTC,2445804.291667,29.6650,-93.4789,0086,-10.42,-10.79,15.0000,224.0000
1984-04-13 19:30:00 UTC,2445804.312500,29.6650,-93.4789,0086,-9.55,-10.24,14.0000,223.0000
1984-04-13 20:00:00 UTC,2445804.333333,29.6650,-93.4789,0086,-9.00,-10.72,14.0000,220.0000
1984-04-13 20:30:00 UTC,2445804.354167,29.6650,-93.4789,0086,-8.43,-11.18,14.0000,217.0000
1984-04-13 21:00:00 UTC,2445804.375000,29.6650,-93.4789,0086,-7.46,-10.65,13.0000,215.0000
1984-04-13 21:30:00 UTC,2445804.395833,29.6650,-93.4789,0086,-4.82,-9.89,11.0000,206.0000
1984-04-13 22:00:00 UTC,2445804.416667,29.6650,-93.4789,0086,-2.85,-10.63,11.0000,195.0000
1984-04-13 22:30:00 UTC,2445804.437500,29.6650,-93.4789,0086,-1.34,-10.92,11.0000,187.0000
1984-04-13 23:00:00 UTC,2445804.458333,29.6650,-93.4789,0086,0.00,-9.00,9.0000,180.0000
1984-04-13 23:30:00 UTC,2445804.479167,29.6650,-93.4789,0086,0.97,-6.93,7.0000,172.0000
1984-04-14 00:00:00 UTC,2445804.500000,29.6650,-93.4789,0086,1.75,-5.74,6.0000,163.0000
1984-04-14 00:30:00 UTC,2445804.520833,29.6650,-93.4789,0086,2.91,-5.25,6.0000,151.0000
1984-04-14 01:00:00 UTC,2445804.541667,29.6650,-93.4789,0086,3.91,-5.80,7.0000,146.0000
1984-04-14 01:30:00 UTC,2445804.562500,29.6650,-93.4789,0086,3.18,-6.24,7.0000,153.0000
1984-04-14 02:00:00 UTC,2445804.583333,29.6650,-93.4789,0086,1.14,-5.89,6.0000,169.0000
1984-04-14 02:30:00 UTC,2445804.604167,29.6650,-93.4789,0086,-1.55,-5.80,6.0000,195.0000
1984-04-14 03:00:00 UTC,2445804.625000,29.6650,-93.4789,0086,-3.58,-9.34,10.0000,201.0000
1984-04-14 03:30:00 UTC,2445804.645833,29.6650,-93.4789,0086,-5.29,-11.88,13.0000,204.0000
1984-04-14 04:00:00 UTC,2445804.666667,29.6650,-93.4789,0086,-7.78,-7.78,11.0000,225.0000
1984-04-14 04:30:00 UTC,2445804.687500,29.6650,-93.4789,0086,-8.86,-1.56,9.0000,260.0000
1984-04-14 05:00:00 UTC,2445804.708333,29.6650,-93.4789,0086,-8.91,-1.25,9.0000,262.0000
1984-04-14 05:30:00 UTC,2445804.729167,29.6650,-93.4789,0086,-6.78,-4.24,8.0000,238.0000
1984-04-14 06:00:00 UTC,2445804.750000,29.6650,-93.4789,0086,-6.58,-6.14,9.0000,227.0000
1984-04-14 06:30:00 UTC,2445804.770833,29.6650,-93.4789,0086,-7.31,-6.82,10.0000,227.0000
1984-04-14 07:00:00 UTC,2445804.791667,29.6650,-93.4789,0086,-7.19,-6.95,10.0000,226.0000
1984-04-14 07:30:00 UTC,2445804.812500,29.6650,-93.4789,0086,-5.25,-6.04,8.0000,221.0000
1984-04-14 08:00:00 UTC,2445804.833333,29.6650,-93.4789,0086,-2.34,-5.52,6.0000,203.0000
1984-04-14 08:30:00 UTC,2445804.854167,29.6650,-93.4789,0086,1.63,-4.73,5.0000,161.0000
1984-04-14 09:00:00 UTC,2445804.875000,29.6650,-93.4789,0086,4.86,-5.04,7.0000,136.0000
1984-04-14 09:30:00 UTC,2445804.895833,29.6650,-93.4789,0086,5.36,-4.50,7.0000,130.0000
1984-04-14 10:00:00 UTC,2445804.916667,29.6650,-93.4789,0086,5.25,-2.91,6.0000,119.0000
1984-04-14 10:30:00 UTC,2445804.937500,29.6650,-93.4789,0086,5.71,-1.85,6.0000,108.0000
1984-04-14 11:00:00 UTC,2445804.958333,29.6650,-93.4789,0086,6.82,-1.57,7.0000,103.0000
1984-04-14 11:30:00 UTC,2445804.979167,29.6650,-93.4789,0086,7.00,-0.12,7.0000,91.0000
1984-04-14 12:00:00 UTC,2445805.000000,29.6650,-93.4789,0086,5.30,2.82,6.0000,62.0000
1984-04-14 12:30:00 UTC,2445805.020833,29.6650,-93.4789,0086,2.25,5.56,6.0000,22.0000
1984-04-14 13:00:00 UTC,2445805.041667,29.6650,-93.4789,0086,0.37,6.99,7.0000,3.0000
1984-04-14 13:30:00 UTC,2445805.062500,29.6650,-93.4789,0086,0.73,6.96,7.0000,6.0000
1984-04-14 14:00:00 UTC,2445805.083333,29.6650,-93.4789,0086,1.85,5.71,6.0000,18.0000
1984-04-14 14:30:00 UTC,2445805.104167,29.6650,-93.4789,0086,3.61,6.00,7.0000,31.0000
1984-04-14 15:00:00 UTC,2445805.125000,29.6650,-93.4789,0086,4.95,4.95,7.0000,45.0000
1984-04-14 15:30:00 UTC,2445805.145833,29.6650,-93.4789,0086,6.86,4.12,8.0000,59.0000
1984-04-14 16:00:00 UTC,2445805.166667,29.6650,-93.4789,0086,7.42,3.00,8.0000,68.0000
1984-04-14 16:30:00 UTC,2445805.187500,29.6650,-93.4789,0086,8.51,2.93,9.0000,71.0000
1984-04-14 17:00:00 UTC,2445805.208333,29.6650,-93.4789,0086,8.69,2.33,9.0000,75.0000
1984-04-14 17:30:00 UTC,2445805.229167,29.6650,-93.4789,0086,8.80,1.87,9.0000,78.0000
1984-04-14 18:00:00 UTC,2445805.250000,29.6650,-93.4789,0086,9.88,1.56,10.0000,81.0000
1984-04-14 18:30:00 UTC,2445805.270833,29.6650,-93.4789,0086,8.99,0.31,9.0000,88.0000
1984-04-14 19:00:00 UTC,2445805.291667,29.6650,-93.4789,0086,7.88,-1.39,8.0000,100.0000
1984-04-14 19:30:00 UTC,2445805.312500,29.6650,-93.4789,0086,4.78,-1.46,5.0000,107.0000
1984-04-14 20:00:00 UTC,2445805.333333,29.6650,-93.4789,0086,3.76,-1.37,4.0000,110.0000
1984-04-14 20:30:00 UTC,2445805.354167,29.6650,-93.4789,0086,4.19,-2.72,5.0000,123.0000
1984-04-14 21:00:00 UTC,2445805.375000,29.6650,-93.4789,0086,4.46,-4.01,6.0000,132.0000
1984-04-14 21:30:00 UTC,2445805.395833,29.6650,-93.4789,0086,5.46,-5.85,8.0000,137.0000
1984-04-14 22:00:00 UTC,2445805.416667,29.6650,-93.4789,0086,5.66,-6.99,9.0000,141.0000
1984-04-14 22:30:00 UTC,2445805.437500,29.6650,-93.4789,0086,2.78,-2.88,4.0000,136.0000
1984-04-14 23:00:00 UTC,2445805.458333,29.6650,-93.4789,0086,-0.72,1.87,2.0000,339.0000
1984-04-14 23:30:00 UTC,2445805.479167,29.6650,-93.4789,0086,-4.01,4.46,6.0000,318.0000
1984-04-15 00:00:00 UTC,2445805.500000,29.6650,-93.4789,0086,-6.55,4.59,8.0000,305.0000
1984-04-15 00:30:00 UTC,2445805.520833,29.6650,-93.4789,0086,-9.43,5.67,11.0000,301.0000
1984-04-15 01:00:00 UTC,2445805.541667,29.6650,-93.4789,0086,-8.79,6.62,11.0000,307.0000
1984-04-15 01:30:00 UTC,2445805.562500,29.6650,-93.4789,0086,-7.19,6.95,10.0000,314.0000
1984-04-15 02:00:00 UTC,2445805.583333,29.6650,-93.4789,0086,-5.54,7.09,9.0000,322.0000
1984-04-15 02:30:00 UTC,2445805.604167,29.6650,-93.4789,0086,-4.09,8.02,9.0000,333.0000
1984-04-15 03:00:00 UTC,2445805.625000,29.6650,-93.4789,0086,-3.42,9.40,10.0000,340.0000
1984-04-15 03:30:00 UTC,2445805.645833,29.6650,-93.4789,0086,-3.71,11.41,12.0000,342.0000
1984-04-15 04:00:00 UTC,2445805.666667,29.6650,-93.4789,0086,-4.10,11.28,12.0000,340.0000
1984-04-15 04:30:00 UTC,2445805.687500,29.6650,-93.4789,0086,-4.10,11.28,12.0000,340.0000
1984-04-15 05:00:00 UTC,2445805.708333,29.6650,-93.4789,0086,-3.22,10.52,11.0000,343.0000
1984-04-15 05:30:00 UTC,2445805.729167,29.6650,-93.4789,0086,-2.59,9.66,10.0000,345.0000